Location: Biltmore Gardens
(41.6070°N, 83.4666°W)
Time: 14:18:33
(UTC+00:00)

CARTOSAT-1 - Pass Details

Date: 14 July 2020
Orbit: 617 x 618 km, 97.8° (Epoch: 04 August)

Event Time Altitude Azimuth Distance (km) Brightness Sun altitude
Exits shadow 03:38:11 33° 212° (SSW) 1,047 4.4 -20.8°
Maximum altitude 03:39:39 46° 261° (W) 833 4.3 -20.9°
Drops below altitude 10° 03:43:49 10° 335° (NNW) 1,989 7.3 -21.3°
Sets 03:46:05 0° 342° (NNW) 2,899 8.5 -21.5°
